"Sample Date","Sample Time","Sample Value","Units","Flow Rate","Sample Interval","Number Channels","Micron Size 0","Counts/Channel 0","Micron Size 1","Counts/Channel 1","Micron Size 2","Counts/Channel 2","Micron Size 3","Counts/Channel 3","Micron Size 4","Counts/Channel 4","Micron Size 5","Counts/Channel 5","Micron Size 6","Counts/Channel 6","Micron Size 7","Counts/Channel 7","Micron Size 8","Counts/Channel 8","Micron Size 9","Counts/Channel 9","Micron Size 10","Counts/Channel 10","Micron Size 11","Counts/Channel 11","Micron Size 12","Counts/Channel 12","Micron Size 13","Counts/Channel 13","Micron Size 14","Counts/Channel 14","Micron Size 15","Counts/Channel 15","Micron Size 16","Counts/Channel 16","Micron Size 17","Counts/Channel 17","Micron Size 18","Counts/Channel 18","Micron Size 19","Counts/Channel 19","Micron Size 20","Counts/Channel 20","Micron Size 21","Counts/Channel 21","Micron Size 22","Counts/Channel 22","Micron Size 23","Counts/Channel 23","Micron Size 24","Counts/Channel 24","Micron Size 25","Counts/Channel 25","Micron Size 26","Counts/Channel 26","Micron Size 27","Counts/Channel 27","Micron Size 28","Counts/Channel 28","Micron Size 29","Counts/Channel 29","Micron Size 30","Counts/Channel 30","Micron Size 31","Counts/Channel 31"
"04/09/08","17:00:01",25454.000,"cc",28317.207,6.00,6,0.100,17545.000,0.200,3171.000,0.300,1634.000,0.500,2033.000,1.000,1071.000,5.000,0
"04/09/08","17:00:07",25993.000,"cc",28228.061,6.00,6,0.100,17588.000,0.200,3299.000,0.300,1719.000,0.500,2249.000,1.000,1138.000,5.000,0
"04/09/08","17:00:13",25674.000,"cc",28339.916,6.00,6,0.100,17466.000,0.200,3296.000,0.300,1699.000,0.500,2174.000,1.000,1039.000,5.000,0
"04/09/08","17:00:19",25512.000,"cc",28346.600,6.00,6,0.100,17583.000,0.200,3197.000,0.300,1624.000,0.500,2104.000,1.000,1004.000,5.000,0
"04/09/08","17:00:25",25745.000,"cc",28303.475,6.00,6,0.100,17634.000,0.200,3226.000,0.300,1671.000,0.500,2081.000,1.000,1132.000,5.000,1.000
"04/09/08","17:00:31",25502.000,"cc",28268.748,6.00,6,0.100,17526.000,0.200,3228.000,0.300,1594.000,0.500,2154.000,1.000,999.000,5.000,1.000
"04/09/08","17:00:37",25552.000,"cc",28322.100,6.00,6,0.100,17619.000,0.200,3238.000,0.300,1603.000,0.500,2002.000,1.000,1089.000,5.000,1.000
"04/09/08","17:00:43",25279.000,"cc",28302.240,6.00,6,0.100,17425.000,0.200,3204.000,0.300,1592.000,0.500,2028.000,1.000,1030.000,5.000,0
"04/09/08","17:00:49",25360.000,"cc",28327.516,6.00,6,0.100,17348.000,0.200,3213.000,0.300,1569.000,0.500,2151.000,1.000,1079.000,5.000,0
"04/09/08","17:00:55",26075.000,"cc",28284.756,6.00,6,0.100,17785.000,0.200,3376.000,0.300,1655.000,0.500,2134.000,1.000,1124.000,5.000,1.000
"04/09/08","17:01:01",26219.000,"cc",28292.523,6.00,6,0.100,17910.000,0.200,3308.000,0.300,1786.000,0.500,2174.000,1.000,1041.000,5.000,0
"04/09/08","17:01:07",26061.000,"cc",28252.031,6.00,6,0.100,17819.000,0.200,3246.000,0.300,1696.000,0.500,2209.000,1.000,1091.000,5.000,0
"04/09/08","17:01:13",25747.000,"cc",28215.523,6.00,6,0.100,17631.000,0.200,3192.000,0.300,1673.000,0.500,2128.000,1.000,1123.000,5.000,0
"04/09/08","17:01:19",25990.000,"cc",28328.463,6.00,6,0.100,17748.000,0.200,3223.000,0.300,1741.000,0.500,2210.000,1.000,1068.000,5.000,0
"04/09/08","17:01:25",26053.000,"cc",28294.838,6.00,6,0.100,17776.000,0.200,3310.000,0.300,1724.000,0.500,2176.000,1.000,1067.000,5.000,0
"04/09/08","17:01:31",25815.000,"cc",28406.932,6.00,6,0.100,17914.000,0.200,3199.000,0.300,1661.000,0.500,2054.000,1.000,987.000,5.000,0
"04/09/08","17:01:37",25612.000,"cc",28458.389,6.00,6,0.100,17534.000,0.200,3269.000,0.300,1648.000,0.500,2144.000,1.000,1017.000,5.000,0
"04/09/08","17:01:43",25496.000,"cc",28373.857,6.00,6,0.100,17387.000,0.200,3226.000,0.300,1668.000,0.500,2142.000,1.000,1073.000,5.000,0
"04/09/08","17:01:49",25102.000,"cc",28266.426,6.00,6,0.100,17297.000,0.200,3165.000,0.300,1635.000,0.500,2033.000,1.000,971.000,5.000,1.000
"04/09/08","17:01:55",25756.000,"cc",28202.984,6.00,6,0.100,17609.000,0.200,3253.000,0.300,1697.000,0.500,2138.000,1.000,1059.000,5.000,0
"04/09/08","17:02:01",25515.000,"cc",28243.748,6.00,6,0.100,17376.000,0.200,3183.000,0.300,1648.000,0.500,2174.000,1.000,1134.000,5.000,0
"04/09/08","17:02:07",25578.000,"cc",28383.111,6.00,6,0.100,17672.000,0.200,3142.000,0.300,1603.000,0.500,2111.000,1.000,1048.000,5.000,2.000
"04/09/08","17:02:13",25675.000,"cc",28268.949,6.00,6,0.100,17487.000,0.200,3298.000,0.300,1642.000,0.500,2192.000,1.000,1056.000,5.000,0
"04/09/08","17:02:19",26212.000,"cc",28179.947,6.00,6,0.100,17869.000,0.200,3247.000,0.300,1693.000,0.500,2252.000,1.000,1151.000,5.000,0
"04/09/08","17:02:25",25797.000,"cc",28305.322,6.00,6,0.100,17704.000,0.200,3213.000,0.300,1690.000,0.500,2099.000,1.000,1090.000,5.000,1.000
"04/09/08","17:02:31",26122.000,"cc",28354.557,6.00,6,0.100,17883.000,0.200,3257.000,0.300,1739.000,0.500,2166.000,1.000,1077.000,5.000,0
"04/09/08","17:02:37",25918.000,"cc",28294.147,6.00,6,0.100,17664.000,0.200,3270.000,0.300,1790.000,0.500,2161.000,1.000,1033.000,5.000,0
"04/09/08","17:02:43",25977.000,"cc",28229.889,6.00,6,0.100,17785.000,0.200,3340.000,0.300,1745.000,0.500,2118.000,1.000,989.000,5.000,0
"04/09/08","17:02:49",26167.000,"cc",28346.373,6.00,6,0.100,17767.000,0.200,3299.000,0.300,1766.000,0.500,2232.000,1.000,1103.000,5.000,0
"04/09/08","17:02:55",26187.000,"cc",28389.115,6.00,6,0.100,17836.000,0.200,3331.000,0.300,1735.000,0.500,2253.000,1.000,1032.000,5.000,0
"04/09/08","17:03:01",26314.000,"cc",28310.397,6.00,6,0.100,18030.000,0.200,3285.000,0.300,1740.000,0.500,2181.000,1.000,1078.000,5.000,0
"04/09/08","17:03:07",26098.000,"cc",28401.199,6.00,6,0.100,17871.000,0.200,3307.000,0.300,1674.000,0.500,2195.000,1.000,1051.000,5.000,0
"04/09/08","17:03:13",25925.000,"cc",28394.762,6.00,6,0.100,17831.000,0.200,3215.000,0.300,1698.000,0.500,2129.000,1.000,1052.000,5.000,0
"04/09/08","17:03:19",26393.000,"cc",28272.273,6.00,6,0.100,18110.000,0.200,3338.000,0.300,1664.000,0.500,2168.000,1.000,1112.000,5.000,1.000
"04/09/08","17:03:25",26164.000,"cc",28422.783,6.00,6,0.100,18008.000,0.200,3274.000,0.300,1719.000,0.500,2069.000,1.000,1094.000,5.000,0
"04/09/08","17:03:31",26083.000,"cc",28340.996,6.00,6,0.100,17944.000,0.200,3290.000,0.300,1727.000,0.500,2052.000,1.000,1070.000,5.000,0
"04/09/08","17:03:37",26808.000,"cc",28218.367,6.00,6,0.100,18333.000,0.200,3368.000,0.300,1683.000,0.500,2282.000,1.000,1142.000,5.000,0
"04/09/08","17:03:43",26296.000,"cc",28269.012,6.00,6,0.100,18032.000,0.200,3260.000,0.300,1720.000,0.500,2187.000,1.000,1097.000,5.000,0
"04/09/08","17:03:49",26036.000,"cc",28307.943,6.00,6,0.100,17933.000,0.200,3199.000,0.300,1734.000,0.500,2126.000,1.000,1043.000,5.000,1.000
"04/09/08","17:03:55",26514.000,"cc",28281.957,6.00,6,0.100,18045.000,0.200,3291.000,0.300,1796.000,0.500,2222.000,1.000,1160.000,5.000,0
"04/09/08","17:04:01",26471.000,"cc",28375.525,6.00,6,0.100,18204.000,0.200,3310.000,0.300,1735.000,0.500,2153.000,1.000,1069.000,5.000,0
"04/09/08","17:04:07",25832.000,"cc",28379.082,6.00,6,0.100,17947.000,0.200,3176.000,0.300,1683.000,0.500,1958.000,1.000,1067.000,5.000,1.000
"04/09/08","17:04:13",26287.000,"cc",28224.547,6.00,6,0.100,17924.000,0.200,3275.000,0.300,1760.000,0.500,2192.000,1.000,1135.000,5.000,1.000
"04/09/08","17:04:19",26082.000,"cc",28331.406,6.00,6,0.100,17991.000,0.200,3240.000,0.300,1598.000,0.500,2166.000,1.000,1087.000,5.000,0
"04/09/08","17:04:25",26104.000,"cc",28345.928,6.00,6,0.100,17828.000,0.200,3322.000,0.300,1622.000,0.500,2206.000,1.000,1126.000,5.000,0
"04/09/08","17:04:31",26567.000,"cc",28232.783,6.00,6,0.100,18181.000,0.200,3306.000,0.300,1714.000,0.500,2233.000,1.000,1133.000,5.000,0
"04/09/08","17:04:37",26506.000,"cc",28268.115,6.00,6,0.100,18124.000,0.200,3305.000,0.300,1723.000,0.500,2174.000,1.000,1180.000,5.000,0
"04/09/08","17:04:43",26279.000,"cc",28372.830,6.00,6,0.100,17874.000,0.200,3382.000,0.300,1771.000,0.500,2144.000,1.000,1108.000,5.000,0
"04/09/08","17:04:49",26262.000,"cc",28363.551,6.00,6,0.100,18005.000,0.200,3395.000,0.300,1668.000,0.500,2148.000,1.000,1046.000,5.000,0
"04/09/08","17:04:55",27479.000,"cc",28344.170,6.00,6,0.100,18850.000,0.200,3456.000,0.300,1764.000,0.500,2273.000,1.000,1136.000,5.000,0
"04/09/08","17:05:01",26154.000,"cc",28316.209,6.00,6,0.100,17784.000,0.200,3348.000,0.300,1730.000,0.500,2233.000,1.000,1058.000,5.000,1.000
"04/09/08","17:05:07",26519.000,"cc",28301.518,6.00,6,0.100,18109.000,0.200,3291.000,0.300,1719.000,0.500,2327.000,1.000,1073.000,5.000,0
"04/09/08","17:05:13",26523.000,"cc",28286.717,6.00,6,0.100,18239.000,0.200,3268.000,0.300,1701.000,0.500,2206.000,1.000,1108.000,5.000,1.000
"04/09/08","17:05:19",26353.000,"cc",28426.836,6.00,6,0.100,18165.000,0.200,3310.000,0.300,1700.000,0.500,2105.000,1.000,1071.000,5.000,2.000
"04/09/08","17:05:25",26065.000,"cc",28266.568,6.00,6,0.100,18008.000,0.200,3194.000,0.300,1655.000,0.500,2098.000,1.000,1110.000,5.000,0
"04/09/08","17:05:31",26212.000,"cc",28330.043,6.00,6,0.100,18034.000,0.200,3373.000,0.300,1660.000,0.500,2035.000,1.000,1109.000,5.000,1.000
"04/09/08","17:05:37",26751.000,"cc",28235.600,6.00,6,0.100,18111.000,0.200,3438.000,0.300,1735.000,0.500,2316.000,1.000,1150.000,5.000,1.000
"04/09/08","17:05:43",26516.000,"cc",28366.775,6.00,6,0.100,18234.000,0.200,3263.000,0.300,1741.000,0.500,2163.000,1.000,1115.000,5.000,0
"04/09/08","17:05:49",26431.000,"cc",28295.410,6.00,6,0.100,18173.000,0.200,3324.000,0.300,1720.000,0.500,2143.000,1.000,1070.000,5.000,1.000
"04/09/08","17:05:55",26577.000,"cc",28237.115,6.00,6,0.100,18065.000,0.200,3364.000,0.300,1753.000,0.500,2248.000,1.000,1145.000,5.000,2.000
"04/09/08","17:06:01",26456.000,"cc",28264.256,6.00,6,0.100,18068.000,0.200,3322.000,0.300,1756.000,0.500,2241.000,1.000,1069.000,5.000,0
"04/09/08","17:06:07",26167.000,"cc",28424.119,6.00,6,0.100,17949.000,0.200,3264.000,0.300,1749.000,0.500,2040.000,1.000,1165.000,5.000,0
"04/09/08","17:06:13",26329.000,"cc",28268.045,6.00,6,0.100,17995.000,0.200,3269.000,0.300,1707.000,0.500,2235.000,1.000,1123.000,5.000,0
"04/09/08","17:06:19",26353.000,"cc",28314.961,6.00,6,0.100,17842.000,0.200,3448.000,0.300,1760.000,0.500,2188.000,1.000,1115.000,5.000,0
"04/09/08","17:06:25",26739.000,"cc",28321.742,6.00,6,0.100,18188.000,0.200,3470.000,0.300,1714.000,0.500,2208.000,1.000,1159.000,5.000,0
"04/09/08","17:06:31",26589.000,"cc",28294.834,6.00,6,0.100,18150.000,0.200,3351.000,0.300,1734.000,0.500,2243.000,1.000,1111.000,5.000,0
"04/09/08","17:06:37",26330.000,"cc",28375.615,6.00,6,0.100,17966.000,0.200,3273.000,0.300,1797.000,0.500,2172.000,1.000,1121.000,5.000,1.000
"04/09/08","17:06:43",26461.000,"cc",28297.607,6.00,6,0.100,18074.000,0.200,3322.000,0.300,1768.000,0.500,2183.000,1.000,1114.000,5.000,0
"04/09/08","17:06:49",26248.000,"cc",28270.631,6.00,6,0.100,17687.000,0.200,3367.000,0.300,1793.000,0.500,2273.000,1.000,1127.000,5.000,1.000
"04/09/08","17:06:55",26491.000,"cc",28300.613,6.00,6,0.100,18256.000,0.200,3264.000,0.300,1735.000,0.500,2181.000,1.000,1055.000,5.000,0
"04/09/08","17:07:01",26243.000,"cc",28329.051,6.00,6,0.100,17996.000,0.200,3415.000,0.300,1662.000,0.500,2089.000,1.000,1081.000,5.000,0
"04/09/08","17:07:07",26528.000,"cc",28390.436,6.00,6,0.100,18330.000,0.200,3335.000,0.300,1706.000,0.500,2087.000,1.000,1069.000,5.000,1.000
"04/09/08","17:07:13",26448.000,"cc",28355.648,6.00,6,0.100,18016.000,0.200,3380.000,0.300,1732.000,0.500,2190.000,1.000,1128.000,5.000,2.000
"04/09/08","17:07:19",26257.000,"cc",28252.967,6.00,6,0.100,17963.000,0.200,3352.000,0.300,1738.000,0.500,2136.000,1.000,1066.000,5.000,2.000
"04/09/08","17:07:25",26507.000,"cc",28372.758,6.00,6,0.100,18297.000,0.200,3242.000,0.300,1740.000,0.500,2128.000,1.000,1099.000,5.000,1.000
"04/09/08","17:07:31",26677.000,"cc",28357.691,6.00,6,0.100,18279.000,0.200,3358.000,0.300,1758.000,0.500,2203.000,1.000,1079.000,5.000,0
"04/09/08","17:07:37",26501.000,"cc",28266.002,6.00,6,0.100,17974.000,0.200,3384.000,0.300,1765.000,0.500,2289.000,1.000,1088.000,5.000,1.000
"04/09/08","17:07:43",26284.000,"cc",28371.918,6.00,6,0.100,17992.000,0.200,3367.000,0.300,1685.000,0.500,2125.000,1.000,1115.000,5.000,0
"04/09/08","17:07:49",26090.000,"cc",28350.074,6.00,6,0.100,17918.000,0.200,3212.000,0.300,1631.000,0.500,2204.000,1.000,1125.000,5.000,0
"04/09/08","17:07:55",25890.000,"cc",28274.828,6.00,6,0.100,17823.000,0.200,3192.000,0.300,1700.000,0.500,2116.000,1.000,1058.000,5.000,1.000
"04/09/08","17:08:01",26115.000,"cc",28280.547,6.00,6,0.100,17931.000,0.200,3355.000,0.300,1721.000,0.500,2051.000,1.000,1057.000,5.000,0
"04/09/08","17:08:07",26204.000,"cc",28336.531,6.00,6,0.100,17974.000,0.200,3314.000,0.300,1679.000,0.500,2173.000,1.000,1064.000,5.000,0
"04/09/08","17:08:13",25980.000,"cc",28264.203,6.00,6,0.100,17809.000,0.200,3243.000,0.300,1711.000,0.500,2120.000,1.000,1097.000,5.000,0
"04/09/08","17:08:19",26327.000,"cc",28194.565,6.00,6,0.100,17957.000,0.200,3296.000,0.300,1746.000,0.500,2171.000,1.000,1156.000,5.000,1.000
"04/09/08","17:08:25",25876.000,"cc",28394.566,6.00,6,0.100,17638.000,0.200,3345.000,0.300,1754.000,0.500,2084.000,1.000,1055.000,5.000,0
"04/09/08","17:08:31",25142.000,"cc",28420.400,6.00,6,0.100,17258.000,0.200,3186.000,0.300,1579.000,0.500,2085.000,1.000,1034.000,5.000,0
"04/09/08","17:08:37",25654.000,"cc",28274.705,6.00,6,0.100,17550.000,0.200,3214.000,0.300,1692.000,0.500,2074.000,1.000,1123.000,5.000,1.000
"04/09/08","17:08:43",25382.000,"cc",28204.604,6.00,6,0.100,17561.000,0.200,3116.000,0.300,1582.000,0.500,2073.000,1.000,1048.000,5.000,2.000
"04/09/08","17:08:49",25621.000,"cc",28344.469,6.00,6,0.100,17568.000,0.200,3337.000,0.300,1607.000,0.500,2048.000,1.000,1061.000,5.000,0
"04/09/08","17:08:55",25144.000,"cc",28408.617,6.00,6,0.100,17292.000,0.200,3209.000,0.300,1632.000,0.500,1961.000,1.000,1050.000,5.000,0
"04/09/08","17:09:01",25582.000,"cc",28190.697,6.00,6,0.100,17326.000,0.200,3327.000,0.300,1752.000,0.500,2106.000,1.000,1071.000,5.000,0
"04/09/08","17:09:07",25703.000,"cc",28296.061,6.00,6,0.100,17568.000,0.200,3210.000,0.300,1723.000,0.500,2135.000,1.000,1067.000,5.000,0
"04/09/08","17:09:13",25538.000,"cc",28317.182,6.00,6,0.100,17586.000,0.200,3201.000,0.300,1626.000,0.500,2077.000,1.000,1047.000,5.000,1.000
"04/09/08","17:09:19",25755.000,"cc",28207.984,6.00,6,0.100,17491.000,0.200,3330.000,0.300,1650.000,0.500,2209.000,1.000,1075.000,5.000,0
"04/09/08","17:09:25",25607.000,"cc",28367.315,6.00,6,0.100,17443.000,0.200,3324.000,0.300,1690.000,0.500,2101.000,1.000,1049.000,5.000,0
"04/09/08","17:09:31",26090.000,"cc",28374.613,6.00,6,0.100,17650.000,0.200,3343.000,0.300,1778.000,0.500,2188.000,1.000,1131.000,5.000,0
"04/09/08","17:09:37",25791.000,"cc",28322.914,6.00,6,0.100,17524.000,0.200,3279.000,0.300,1777.000,0.500,2132.000,1.000,1079.000,5.000,0
"04/09/08","17:09:43",25652.000,"cc",28316.449,6.00,6,0.100,17561.000,0.200,3285.000,0.300,1630.000,0.500,2088.000,1.000,1088.000,5.000,0
"04/09/08","17:09:49",25528.000,"cc",28374.779,6.00,6,0.100,17586.000,0.200,3120.000,0.300,1663.000,0.500,2121.000,1.000,1038.000,5.000,0
"04/09/08","17:09:55",25790.000,"cc",28297.451,6.00,6,0.100,17709.000,0.200,3314.000,0.300,1614.000,0.500,2081.000,1.000,1072.000,5.000,0
"04/09/08","17:10:01",25952.000,"cc",28277.631,6.00,6,0.100,17954.000,0.200,3218.000,0.300,1621.000,0.500,2132.000,1.000,1025.000,5.000,2.000
"04/09/08","17:10:07",26130.000,"cc",28209.799,6.00,6,0.100,17576.000,0.200,3424.000,0.300,1677.000,0.500,2271.000,1.000,1182.000,5.000,0
"04/09/08","17:10:13",26268.000,"cc",28344.242,6.00,6,0.100,17804.000,0.200,3425.000,0.300,1707.000,0.500,2191.000,1.000,1140.000,5.000,1.000
"04/09/08","17:10:19",25832.000,"cc",28331.152,6.00,6,0.100,17602.000,0.200,3264.000,0.300,1678.000,0.500,2168.000,1.000,1120.000,5.000,0
"04/09/08","17:10:25",26016.000,"cc",28302.977,6.00,6,0.100,17914.000,0.200,3257.000,0.300,1594.000,0.500,2164.000,1.000,1087.000,5.000,0
"04/09/08","17:10:31",25882.000,"cc",28406.537,6.00,6,0.100,17875.000,0.200,3171.000,0.300,1668.000,0.500,2087.000,1.000,1081.000,5.000,0
"04/09/08","17:10:37",25777.000,"cc",28309.668,6.00,6,0.100,17813.000,0.200,3102.000,0.300,1703.000,0.500,2075.000,1.000,1083.000,5.000,1.000
"04/09/08","17:10:43",25779.000,"cc",28286.576,6.00,6,0.100,17666.000,0.200,3236.000,0.300,1676.000,0.500,2100.000,1.000,1101.000,5.000,0
"04/09/08","17:10:49",26181.000,"cc",28322.729,6.00,6,0.100,17845.000,0.200,3305.000,0.300,1718.000,0.500,2233.000,1.000,1080.000,5.000,0
"04/09/08","17:10:55",26054.000,"cc",28378.994,6.00,6,0.100,17971.000,0.200,3250.000,0.300,1644.000,0.500,2102.000,1.000,1087.000,5.000,0
"04/09/08","17:11:01",26365.000,"cc",28320.967,6.00,6,0.100,18232.000,0.200,3261.000,0.300,1699.000,0.500,2091.000,1.000,1082.000,5.000,0
"04/09/08","17:11:07",27993.000,"cc",28339.393,6.00,6,0.100,18356.000,0.200,3612.000,0.300,2094.000,0.500,2546.000,1.000,1385.000,5.000,0
"04/09/08","17:11:13",26021.000,"cc",28277.340,6.00,6,0.100,17952.000,0.200,3295.000,0.300,1614.000,0.500,2075.000,1.000,1085.000,5.000,0
"04/09/08","17:11:19",26005.000,"cc",28244.545,6.00,6,0.100,17707.000,0.200,3262.000,0.300,1707.000,0.500,2226.000,1.000,1103.000,5.000,0
"04/09/08","17:11:25",26162.000,"cc",28299.967,6.00,6,0.100,17804.000,0.200,3388.000,0.300,1674.000,0.500,2181.000,1.000,1115.000,5.000,0
"04/09/08","17:11:31",26092.000,"cc",28245.922,6.00,6,0.100,17785.000,0.200,3261.000,0.300,1684.000,0.500,2254.000,1.000,1108.000,5.000,0
"04/09/08","17:11:37",26202.000,"cc",28429.682,6.00,6,0.100,17771.000,0.200,3373.000,0.300,1714.000,0.500,2268.000,1.000,1076.000,5.000,0
"04/09/08","17:11:43",26199.000,"cc",28288.494,6.00,6,0.100,17972.000,0.200,3236.000,0.300,1723.000,0.500,2134.000,1.000,1133.000,5.000,1.000
"04/09/08","17:11:49",26024.000,"cc",28329.293,6.00,6,0.100,17916.000,0.200,3206.000,0.300,1695.000,0.500,2097.000,1.000,1110.000,5.000,0
"04/09/08","17:11:55",26216.000,"cc",28357.412,6.00,6,0.100,17931.000,0.200,3315.000,0.300,1713.000,0.500,2118.000,1.000,1139.000,5.000,0
"04/09/08","17:12:01",26272.000,"cc",28346.305,6.00,6,0.100,17970.000,0.200,3291.000,0.300,1683.000,0.500,2210.000,1.000,1118.000,5.000,0
"04/09/08","17:12:07",26159.000,"cc",28285.518,6.00,6,0.100,17844.000,0.200,3242.000,0.300,1700.000,0.500,2213.000,1.000,1159.000,5.000,1.000
"04/09/08","17:12:13",26922.000,"cc",28244.576,6.00,6,0.100,17991.000,0.200,3484.000,0.300,1851.000,0.500,2413.000,1.000,1182.000,5.000,1.000
"04/09/08","17:12:19",26921.000,"cc",28190.381,6.00,6,0.100,18023.000,0.200,3537.000,0.300,1798.000,0.500,2334.000,1.000,1229.000,5.000,0
"04/09/08","17:12:25",26115.000,"cc",28187.467,6.00,6,0.100,17701.000,0.200,3375.000,0.300,1717.000,0.500,2192.000,1.000,1130.000,5.000,0
"04/09/08","17:12:31",26117.000,"cc",28365.693,6.00,6,0.100,17800.000,0.200,3292.000,0.300,1747.000,0.500,2200.000,1.000,1076.000,5.000,2.000
"04/09/08","17:12:37",25873.000,"cc",28371.111,6.00,6,0.100,17751.000,0.200,3236.000,0.300,1664.000,0.500,2125.000,1.000,1097.000,5.000,0
"04/09/08","17:12:43",25996.000,"cc",28368.754,6.00,6,0.100,17815.000,0.200,3274.000,0.300,1717.000,0.500,2139.000,1.000,1051.000,5.000,0
"04/09/08","17:12:49",26010.000,"cc",28355.014,6.00,6,0.100,17787.000,0.200,3270.000,0.300,1682.000,0.500,2178.000,1.000,1093.000,5.000,0
"04/09/08","17:12:55",25984.000,"cc",28365.133,6.00,6,0.100,17808.000,0.200,3293.000,0.300,1670.000,0.500,2136.000,1.000,1077.000,5.000,0
"04/09/08","17:13:01",26283.000,"cc",28269.268,6.00,6,0.100,17890.000,0.200,3306.000,0.300,1778.000,0.500,2194.000,1.000,1115.000,5.000,0
"04/09/08","17:13:07",25877.000,"cc",28167.840,6.00,6,0.100,17692.000,0.200,3301.000,0.300,1610.000,0.500,2160.000,1.000,1113.000,5.000,1.000
"04/09/08","17:13:13",25826.000,"cc",28197.965,6.00,6,0.100,17679.000,0.200,3248.000,0.300,1657.000,0.500,2174.000,1.000,1068.000,5.000,0
"04/09/08","17:13:19",25822.000,"cc",28474.746,6.00,6,0.100,17759.000,0.200,3233.000,0.300,1647.000,0.500,2107.000,1.000,1076.000,5.000,0
"04/09/08","17:13:25",26163.000,"cc",28305.592,6.00,6,0.100,17834.000,0.200,3393.000,0.300,1653.000,0.500,2202.000,1.000,1081.000,5.000,0
"04/09/08","17:13:31",26059.000,"cc",28340.469,6.00,6,0.100,17839.000,0.200,3220.000,0.300,1692.000,0.500,2166.000,1.000,1142.000,5.000,0
"04/09/08","17:13:37",26127.000,"cc",28324.174,6.00,6,0.100,17966.000,0.200,3268.000,0.300,1731.000,0.500,2116.000,1.000,1045.000,5.000,1.000
"04/09/08","17:13:43",26273.000,"cc",28312.592,6.00,6,0.100,18039.000,0.200,3357.000,0.300,1653.000,0.500,2181.000,1.000,1043.000,5.000,0
"04/09/08","17:13:49",26049.000,"cc",28366.611,6.00,6,0.100,17918.000,0.200,3235.000,0.300,1633.000,0.500,2146.000,1.000,1117.000,5.000,0
"04/09/08","17:13:55",26168.000,"cc",28328.465,6.00,6,0.100,17971.000,0.200,3370.000,0.300,1649.000,0.500,2127.000,1.000,1051.000,5.000,0
"04/09/08","17:14:01",26370.000,"cc",28352.967,6.00,6,0.100,18176.000,0.200,3244.000,0.300,1676.000,0.500,2144.000,1.000,1130.000,5.000,0
"04/09/08","17:14:07",26262.000,"cc",28247.334,6.00,6,0.100,18007.000,0.200,3330.000,0.300,1771.000,0.500,2147.000,1.000,1007.000,5.000,0
"04/09/08","17:14:13",26258.000,"cc",28207.791,6.00,6,0.100,17998.000,0.200,3286.000,0.300,1725.000,0.500,2195.000,1.000,1054.000,5.000,0
"04/09/08","17:14:19",26197.000,"cc",28331.168,6.00,6,0.100,17900.000,0.200,3326.000,0.300,1730.000,0.500,2131.000,1.000,1109.000,5.000,1.000
"04/09/08","17:14:25",26568.000,"cc",28247.690,6.00,6,0.100,18150.000,0.200,3424.000,0.300,1698.000,0.500,2219.000,1.000,1077.000,5.000,0
"04/09/08","17:14:31",26477.000,"cc",28379.529,6.00,6,0.100,17834.000,0.200,3453.000,0.300,1785.000,0.500,2272.000,1.000,1133.000,5.000,0
"04/09/08","17:14:37",26147.000,"cc",28254.012,6.00,6,0.100,17614.000,0.200,3325.000,0.300,1823.000,0.500,2270.000,1.000,1115.000,5.000,0
"04/09/08","17:14:43",25849.000,"cc",28296.625,6.00,6,0.100,17648.000,0.200,3245.000,0.300,1704.000,0.500,2182.000,1.000,1070.000,5.000,0
"04/09/08","17:14:49",25827.000,"cc",28375.084,6.00,6,0.100,17499.000,0.200,3367.000,0.300,1691.000,0.500,2177.000,1.000,1092.000,5.000,1.000
"04/09/08","17:14:55",25828.000,"cc",28368.965,6.00,6,0.100,17608.000,0.200,3183.000,0.300,1743.000,0.500,2229.000,1.000,1065.000,5.000,0
"04/09/08","17:15:01",25525.000,"cc",28388.574,6.00,6,0.100,17407.000,0.200,3277.000,0.300,1644.000,0.500,2136.000,1.000,1060.000,5.000,1.000
"04/09/08","17:15:07",25517.000,"cc",28357.139,6.00,6,0.100,17547.000,0.200,3178.000,0.300,1667.000,0.500,2075.000,1.000,1050.000,5.000,0
"04/09/08","17:15:13",25410.000,"cc",28344.316,6.00,6,0.100,17337.000,0.200,3196.000,0.300,1662.000,0.500,2176.000,1.000,1038.000,5.000,1.000
"04/09/08","17:15:19",25299.000,"cc",28265.440,6.00,6,0.100,17354.000,0.200,3166.000,0.300,1698.000,0.500,2042.000,1.000,1039.000,5.000,0
"04/09/08","17:15:25",25498.000,"cc",28299.158,6.00,6,0.100,17304.000,0.200,3217.000,0.300,1723.000,0.500,2112.000,1.000,1142.000,5.000,0
"04/09/08","17:15:31",25632.000,"cc",28320.193,6.00,6,0.100,17427.000,0.200,3316.000,0.300,1652.000,0.500,2162.000,1.000,1074.000,5.000,1.000
"04/09/08","17:15:37",25311.000,"cc",28348.180,6.00,6,0.100,17308.000,0.200,3189.000,0.300,1628.000,0.500,2093.000,1.000,1092.000,5.000,1.000
"04/09/08","17:15:43",25337.000,"cc",28224.238,6.00,6,0.100,17234.000,0.200,3192.000,0.300,1647.000,0.500,2198.000,1.000,1066.000,5.000,0
"04/09/08","17:15:49",25155.000,"cc",28331.756,6.00,6,0.100,17227.000,0.200,3133.000,0.300,1624.000,0.500,2108.000,1.000,1063.000,5.000,0
"04/09/08","17:15:55",24985.000,"cc",28228.311,6.00,6,0.100,16938.000,0.200,3212.000,0.300,1646.000,0.500,2128.000,1.000,1059.000,5.000,2.000
"04/09/08","17:16:01",25381.000,"cc",28282.250,6.00,6,0.100,17269.000,0.200,3172.000,0.300,1723.000,0.500,2130.000,1.000,1087.000,5.000,0
"04/09/08","17:16:07",25342.000,"cc",28403.131,6.00,6,0.100,17122.000,0.200,3262.000,0.300,1708.000,0.500,2180.000,1.000,1070.000,5.000,0